N421KW LRCV-LROP

Flight info

Callsign N421KW
Flight time 0h 49m
Altitude 7000
Route PEMOK T899 TOSVI
Aircraft C208/L-SDFGRY/C

Departure

Time 2026-04-11 08:20
Airport Craiova International Airport (LRCV)

Arrival

Time 2026-04-11 09:09
Airport Bucharest Henri Coandă International Airport (LROP)
Time Latitude Longitude Altitude Speed Heading
2026-04-11 08:15 44.31798 23.87403 633 ft 0 kts 88°
2026-04-11 08:19 44.31799 23.87428 633 ft 21 kts 88°
2026-04-11 08:19 44.31807 23.87978 632 ft 85 kts 87°
2026-04-11 08:19 44.31856 23.88958 797 ft 109 kts 83°
2026-04-11 08:19 44.31928 23.90036 1132 ft 110 kts 80°
2026-04-11 08:20 44.32020 23.91185 1247 ft 130 kts 85°
2026-04-11 08:20 44.32015 23.92487 1247 ft 137 kts 91°
2026-04-11 08:20 44.32014 23.93832 1196 ft 141 kts 85°
2026-04-11 08:20 44.32028 23.95196 1162 ft 140 kts 91°
2026-04-11 08:21 44.32009 23.96549 1159 ft 139 kts 84°
2026-04-11 08:21 44.32369 23.97775 1171 ft 137 kts 57°
2026-04-11 08:21 44.32863 23.98965 1161 ft 149 kts 59°
2026-04-11 08:21 44.33613 23.99968 1160 ft 156 kts 19°
2026-04-11 08:22 44.34692 24.00149 1165 ft 158 kts
2026-04-11 08:22 44.35784 24.00309 1154 ft 159 kts 16°
2026-04-11 08:22 44.36638 24.01255 1155 ft 160 kts 58°
2026-04-11 08:22 44.36906 24.02731 1162 ft 160 kts 82°
2026-04-11 08:23 44.37216 24.04219 1171 ft 160 kts 64°
2026-04-11 08:23 44.37717 24.05629 1175 ft 164 kts 62°
2026-04-11 08:23 44.38222 24.07061 1173 ft 164 kts 63°
2026-04-11 08:23 44.38722 24.08498 1170 ft 165 kts 63°
2026-04-11 08:24 44.39223 24.09937 1169 ft 166 kts 63°
2026-04-11 08:24 44.39734 24.11401 1169 ft 168 kts 63°
2026-04-11 08:24 44.40247 24.12877 1169 ft 169 kts 63°
2026-04-11 08:24 44.40757 24.14348 1239 ft 166 kts 63°
2026-04-11 08:25 44.41257 24.15794 1394 ft 161 kts 63°
2026-04-11 08:25 44.41739 24.17189 1635 ft 157 kts 63°
2026-04-11 08:25 44.42211 24.18557 1868 ft 156 kts 63°
2026-04-11 08:25 44.42680 24.19915 2102 ft 155 kts 63°
2026-04-11 08:26 44.43150 24.21273 2330 ft 154 kts 63°
2026-04-11 08:26 44.43617 24.22627 2558 ft 154 kts 63°
2026-04-11 08:26 44.44083 24.23975 2790 ft 153 kts 63°
2026-04-11 08:26 44.44549 24.25321 3020 ft 154 kts 62°
2026-04-11 08:27 44.45009 24.26658 3251 ft 154 kts 62°
2026-04-11 08:27 44.45473 24.28005 3484 ft 152 kts 62°
2026-04-11 08:27 44.45932 24.29334 3706 ft 151 kts 62°
2026-04-11 08:27 44.46386 24.30653 3940 ft 150 kts 62°
2026-04-11 08:28 44.46838 24.31963 4172 ft 149 kts 62°
2026-04-11 08:28 44.47291 24.33278 4403 ft 150 kts 62°
2026-04-11 08:28 44.47779 24.34565 4643 ft 149 kts 53°
2026-04-11 08:28 44.48514 24.35568 4883 ft 148 kts 32°
2026-04-11 08:29 44.49383 24.36335 5118 ft 147 kts 30°
2026-04-11 08:29 44.50248 24.37115 5343 ft 148 kts 31°
2026-04-11 08:29 44.51107 24.37909 5577 ft 148 kts 31°
2026-04-11 08:29 44.51953 24.38704 5814 ft 148 kts 32°
2026-04-11 08:30 44.52803 24.39523 6046 ft 149 kts 32°
2026-04-11 08:30 44.53612 24.40426 6278 ft 150 kts 43°
2026-04-11 08:30 44.54235 24.41600 6506 ft 151 kts 59°
2026-04-11 08:30 44.54609 24.42980 6720 ft 152 kts 75°
2026-04-11 08:31 44.54704 24.44458 6936 ft 153 kts 91°
2026-04-11 08:31 44.54520 24.45940 7093 ft 158 kts 105°
2026-04-11 08:31 44.54199 24.47470 7097 ft 168 kts 105°
2026-04-11 08:31 44.53873 24.49067 7104 ft 172 kts 105°
2026-04-11 08:32 44.53552 24.50700 7108 ft 175 kts 104°
2026-04-11 08:32 44.53238 24.52356 7102 ft 176 kts 104°
2026-04-11 08:32 44.52934 24.54020 7103 ft 177 kts 103°
2026-04-11 08:32 44.52641 24.55696 7107 ft 178 kts 103°
2026-04-11 08:33 44.52358 24.57383 7106 ft 178 kts 102°
2026-04-11 08:33 44.52067 24.59060 7099 ft 177 kts 107°
2026-04-11 08:33 44.51589 24.60627 7091 ft 177 kts 117°
2026-04-11 08:33 44.51010 24.62154 7089 ft 177 kts 117°
2026-04-11 08:34 44.50451 24.63685 7092 ft 177 kts 116°
2026-04-11 08:34 44.49901 24.65223 7093 ft 177 kts 116°
2026-04-11 08:34 44.49360 24.66768 7094 ft 177 kts 116°
2026-04-11 08:34 44.48828 24.68321 7093 ft 177 kts 115°
2026-04-11 08:35 44.48306 24.69879 7091 ft 177 kts 115°
2026-04-11 08:35 44.47792 24.71444 7096 ft 176 kts 115°
2026-04-11 08:35 44.47288 24.73017 7097 ft 177 kts 114°
2026-04-11 08:35 44.46796 24.74592 7096 ft 177 kts 113°
2026-04-11 08:36 44.46310 24.76169 7095 ft 176 kts 115°
2026-04-11 08:36 44.45799 24.77726 7098 ft 176 kts 112°
2026-04-11 08:36 44.45340 24.79339 6976 ft 182 kts 111°
2026-04-11 08:36 44.44888 24.80990 6808 ft 186 kts 110°
2026-04-11 08:37 44.44440 24.82698 6633 ft 188 kts 110°
2026-04-11 08:37 44.44066 24.84446 6459 ft 188 kts 95°
2026-04-11 08:37 44.44415 24.86176 6280 ft 188 kts 52°
2026-04-11 08:37 44.45471 24.87146 6250 ft 180 kts 18°
2026-04-11 08:38 44.46655 24.87684 6204 ft 178 kts 16°
2026-04-11 08:38 44.47835 24.88221 6175 ft 177 kts 16°
2026-04-11 08:38 44.48991 24.88749 6225 ft 173 kts 16°
2026-04-11 08:38 44.50126 24.89267 6274 ft 171 kts 16°
2026-04-11 08:39 44.51238 24.89777 6323 ft 170 kts 16°
2026-04-11 08:39 44.52368 24.90287 6375 ft 170 kts 15°
2026-04-11 08:39 44.53505 24.90731 6429 ft 169 kts 12°
2026-04-11 08:39 44.54660 24.91091 6487 ft 171 kts
2026-04-11 08:40 44.55832 24.91365 6536 ft 171 kts
2026-04-11 08:40 44.57016 24.91558 6580 ft 170 kts
2026-04-11 08:40 44.58197 24.91664 6629 ft 170 kts
2026-04-11 08:40 44.59377 24.91683 6676 ft 169 kts 356°
2026-04-11 08:41 44.60554 24.91608 6726 ft 169 kts 354°
2026-04-11 08:41 44.61724 24.91450 6784 ft 169 kts 351°
2026-04-11 08:41 44.62889 24.91211 6832 ft 169 kts 348°
2026-04-11 08:41 44.64040 24.90884 6881 ft 168 kts 345°
2026-04-11 08:42 44.65170 24.90532 6929 ft 168 kts 345°
2026-04-11 08:42 44.66310 24.90135 6978 ft 168 kts 343°
2026-04-11 08:42 44.67433 24.89672 7028 ft 168 kts 340°
2026-04-11 08:43 44.69642 24.88602 7086 ft 170 kts 350°
2026-04-11 08:43 44.70786 24.88958 7085 ft 174 kts 31°
2026-04-11 08:43 44.71545 24.90259 7093 ft 175 kts 62°
2026-04-11 08:43 44.71944 24.91869 7089 ft 175 kts 83°
2026-04-11 08:44 44.72006 24.93582 7092 ft 176 kts 88°
2026-04-11 08:44 44.72004 24.95307 7091 ft 176 kts 93°
2026-04-11 08:44 44.71928 24.97006 7093 ft 176 kts 93°
2026-04-11 08:44 44.71849 24.98727 7092 ft 176 kts 94°
2026-04-11 08:45 44.71791 25.00449 7091 ft 177 kts 86°
2026-04-11 08:45 44.71964 25.02158 7094 ft 176 kts 82°
2026-04-11 08:45 44.72098 25.03881 7094 ft 177 kts 84°
2026-04-11 08:45 44.72226 25.05600 7092 ft 177 kts 84°
2026-04-11 08:46 44.72308 25.06738 7090 ft 177 kts 84°
2026-04-11 08:46 44.72459 25.08452 7086 ft 177 kts 82°
2026-04-11 08:46 44.72662 25.10161 7088 ft 177 kts 79°
2026-04-11 08:46 44.72922 25.11852 7088 ft 177 kts 76°
2026-04-11 08:47 44.73242 25.13527 7089 ft 177 kts 73°
2026-04-11 08:47 44.73621 25.15184 7089 ft 178 kts 70°
2026-04-11 08:47 44.74060 25.16814 7088 ft 178 kts 67°
2026-04-11 08:47 44.74558 25.18413 7089 ft 179 kts 64°
2026-04-11 08:48 44.75112 25.19980 7089 ft 179 kts 62°
2026-04-11 08:48 44.75363 25.21667 7050 ft 179 kts 97°
2026-04-11 08:48 44.74862 25.23234 7031 ft 176 kts 127°
2026-04-11 08:48 44.74210 25.24667 7036 ft 177 kts 116°
2026-04-11 08:49 44.73849 25.26318 7041 ft 177 kts 102°
2026-04-11 08:49 44.73614 25.28020 7048 ft 178 kts 102°
2026-04-11 08:49 44.73363 25.29724 7045 ft 178 kts 102°
2026-04-11 08:49 44.73105 25.31422 7045 ft 178 kts 102°
2026-04-11 08:50 44.72844 25.33124 7046 ft 178 kts 103°
2026-04-11 08:50 44.72584 25.34826 7037 ft 178 kts 102°
2026-04-11 08:50 44.72325 25.36528 7038 ft 178 kts 103°
2026-04-11 08:50 44.72063 25.38228 7036 ft 178 kts 102°
2026-04-11 08:51 44.71801 25.39933 7037 ft 178 kts 102°
2026-04-11 08:51 44.71540 25.41643 7033 ft 178 kts 103°
2026-04-11 08:51 44.71282 25.43327 7037 ft 178 kts 102°
2026-04-11 08:51 44.71146 25.45053 7035 ft 178 kts 84°
2026-04-11 08:52 44.71451 25.48511 7032 ft 178 kts 84°
2026-04-11 08:52 44.71516 25.50245 7023 ft 178 kts 92°
2026-04-11 08:52 44.71323 25.51955 7014 ft 177 kts 106°
2026-04-11 08:53 44.70858 25.53554 7003 ft 177 kts 121°
2026-04-11 08:53 44.70088 25.54891 6987 ft 176 kts 138°
2026-04-11 08:53 44.69095 25.55864 6977 ft 174 kts 159°
2026-04-11 08:53 44.67949 25.56383 6974 ft 173 kts 165°
2026-04-11 08:54 44.66802 25.56911 6978 ft 174 kts 162°
2026-04-11 08:54 44.65673 25.57525 6977 ft 174 kts 159°
2026-04-11 08:54 44.64571 25.58233 6981 ft 174 kts 155°
2026-04-11 08:54 44.63496 25.59022 6978 ft 174 kts 152°
2026-04-11 08:55 44.62436 25.59908 6769 ft 174 kts 149°
2026-04-11 08:55 44.61502 25.60776 6528 ft 150 kts 147°
2026-04-11 08:55 44.60690 25.61617 6273 ft 141 kts 144°
2026-04-11 08:55 44.59977 25.62436 6010 ft 128 kts 141°
2026-04-11 08:56 44.59332 25.63253 5752 ft 123 kts 139°
2026-04-11 08:56 44.58732 25.64078 5502 ft 119 kts 137°
2026-04-11 08:56 44.58170 25.64924 5253 ft 118 kts 134°
2026-04-11 08:56 44.57721 25.65655 5055 ft 116 kts 133°
2026-04-11 08:57 44.57336 25.66330 4871 ft 114 kts 130°
2026-04-11 08:57 44.56863 25.67228 4631 ft 114 kts 128°
2026-04-11 08:57 44.56449 25.68093 4406 ft 114 kts 125°
2026-04-11 08:57 44.56039 25.69027 4173 ft 112 kts 123°
2026-04-11 08:58 44.55658 25.69984 3937 ft 112 kts 121°
2026-04-11 08:58 44.55304 25.70966 3704 ft 113 kts 117°
2026-04-11 08:58 44.54986 25.71955 3478 ft 110 kts 115°
2026-04-11 08:58 44.54700 25.72959 3243 ft 112 kts 112°
2026-04-11 08:59 44.54439 25.73994 3005 ft 112 kts 110°
2026-04-11 08:59 44.54218 25.75021 2776 ft 110 kts 107°
2026-04-11 08:59 44.54194 25.76082 2615 ft 107 kts 84°
2026-04-11 08:59 44.54309 25.77062 2613 ft 97 kts 83°
2026-04-11 09:00 44.54444 25.77967 2615 ft 95 kts 79°
2026-04-11 09:00 44.54621 25.78882 2617 ft 98 kts 76°
2026-04-11 09:00 44.54836 25.79811 2618 ft 101 kts 73°
2026-04-11 09:00 44.55060 25.80753 2607 ft 103 kts 85°
2026-04-11 09:01 44.55059 25.81715 2630 ft 101 kts 92°
2026-04-11 09:01 44.54977 25.82703 2637 ft 103 kts 99°
2026-04-11 09:01 44.54989 25.83719 2618 ft 104 kts 78°
2026-04-11 09:01 44.55266 25.84615 2613 ft 100 kts 70°
2026-04-11 09:02 44.55291 25.85563 2627 ft 99 kts 98°
2026-04-11 09:02 44.55211 25.86528 2640 ft 101 kts 99°
2026-04-11 09:02 44.55161 25.87507 2645 ft 102 kts 99°
2026-04-11 09:02 44.55073 25.88491 2632 ft 103 kts 90°
2026-04-11 09:03 44.55126 25.89461 2626 ft 96 kts 90°
2026-04-11 09:03 44.55176 25.90370 2624 ft 90 kts 88°
2026-04-11 09:03 44.55229 25.91200 2628 ft 86 kts 88°
2026-04-11 09:03 44.55293 25.92095 2620 ft 95 kts 86°
2026-04-11 09:04 44.55366 25.93029 2624 ft 97 kts 86°
2026-04-11 09:04 44.55447 25.94040 2348 ft 113 kts 87°
2026-04-11 09:04 44.55471 25.95037 2251 ft 82 kts 83°
2026-04-11 09:04 44.55548 25.95763 2097 ft 74 kts 83°
2026-04-11 09:05 44.55640 25.96492 1995 ft 76 kts 83°
2026-04-11 09:05 44.55701 25.97250 1843 ft 81 kts 88°
2026-04-11 09:05 44.55760 25.98044 1656 ft 81 kts 85°
2026-04-11 09:05 44.55820 25.98853 1482 ft 85 kts 86°
2026-04-11 09:06 44.55859 25.99668 1328 ft 82 kts 85°
2026-04-11 09:06 44.55906 26.00447 1255 ft 78 kts 83°
2026-04-11 09:06 44.55982 26.01216 1206 ft 83 kts 80°
2026-04-11 09:06 44.56038 26.02055 1093 ft 87 kts 83°
2026-04-11 09:07 44.56105 26.02927 978 ft 92 kts 84°
2026-04-11 09:07 44.56167 26.03820 901 ft 93 kts 83°
2026-04-11 09:07 44.56240 26.04715 782 ft 92 kts 82°
2026-04-11 09:07 44.56312 26.05585 628 ft 86 kts 82°
2026-04-11 09:08 44.56364 26.06397 529 ft 82 kts 81°
2026-04-11 09:08 44.56426 26.07186 428 ft 80 kts 82°
2026-04-11 09:08 44.56484 26.07946 344 ft 76 kts 82°
2026-04-11 09:08 44.56535 26.08620 323 ft 61 kts 83°
2026-04-11 09:09 44.56570 26.09134 319 ft 35 kts 88°
2026-04-11 09:09 44.56590 26.09188 318 ft 6 kts 265°
2026-04-11 09:09 44.56575 26.09048 318 ft 23 kts 261°
2026-04-11 09:09 44.56551 26.08767 320 ft 23 kts 272°
2026-04-11 09:10 44.56654 26.08592 321 ft 27 kts 343°
2026-04-11 09:10 44.56833 26.08562 321 ft 22 kts 353°
2026-04-11 09:10 44.56892 26.08539 321 ft 8 kts 308°
2026-04-11 09:10 44.56875 26.08383 320 ft 24 kts 241°
2026-04-11 09:11 44.56813 26.08213 321 ft 6 kts 249°
2026-04-11 09:11 44.56800 26.08148 321 ft 7 kts 305°
2026-04-11 09:11 44.56835 26.08122 321 ft 3 kts 296°
2026-04-11 09:11 44.56826 26.08076 321 ft 5 kts 293°
2026-04-11 09:12 44.56829 26.08068 321 ft 0 kts 290°